Lapse_Rate
5.2 5.2 5.3 5.3 5.4 5.5 5.8 5.9 6.1 6.3 6.3 6.4 6.5 6.5 6.6 6.6 6.6 6.6 6.6 6.8 6.8 6.9 7.0 7.1 7.0 7.0 6.7 6.3 6.5 7.0 8.4 9.3 8.2 8.5 8.3 8.9 8.9 8.7 8.5 8.7 8.6 8.2 8.2 7.8 8.0
5.2 5.3 5.4 5.4 5.5 5.7 5.9 6.1 6.3 6.4 6.5 6.5 6.6 6.6 6.6 6.6 6.7 6.7 6.7 6.7 6.8 6.9 6.9 7.0 7.1 6.7 6.5 6.9 7.1 7.3 9.3 8.8 7.9 7.9 7.8 8.1 8.2 8.4 8.9 9.1 9.4 8.8 8.1 8.1 8.2
5.2 5.3 5.4 5.5 5.6 5.9 6.1 6.3 6.5 6.6 6.7 6.6 6.7 6.8 6.7 6.6 6.7 6.7 6.9 6.8 6.8 6.9 7.0 6.9 6.5 6.5 6.9 7.2 7.5 7.8 8.1 8.0 7.8 7.8 7.7 7.8 7.9 8.2 9.0 9.1 9.3 8.9 8.3 8.5 8.5
5.2 5.3 5.4 5.6 5.8 6.1 6.3 6.5 6.7 6.8 6.9 6.8 6.8 6.8 6.8 6.7 6.5 6.9 7.0 7.0 6.9 6.9 6.9 7.0 6.6 6.5 7.1 7.5 7.5 7.5 7.9 7.7 7.8 7.7 7.5 7.6 7.8 8.0 8.0 8.5 8.6 8.9 8.4 8.5 8.8
5.2 5.3 5.4 5.7 5.9 6.1 6.5 6.7 6.8 6.9 7.0 7.0 6.9 6.9 6.8 6.7 6.7 7.1 7.1 7.1 7.0 6.9 6.9 6.8 6.4 6.7 7.2 7.6 7.5 7.5 7.7 7.7 7.7 7.7 7.6 7.7 7.7 7.8 7.9 8.0 8.4 8.7 8.4 8.0 8.0
5.2 5.4 5.5 5.6 5.9 6.2 6.5 6.7 6.9 7.0 7.1 7.0 6.9 6.9 6.7 6.3 6.9 7.0 7.1 7.2 7.1 7.0 6.7 6.2 6.5 6.8 6.9 7.3 7.5 7.7 7.6 7.6 7.8 7.8 7.7 7.7 7.9 7.9 8.1 8.1 8.3 8.6 8.7 8.5 7.6
5.3 5.4 5.5 5.6 5.8 6.1 6.4 6.7 6.9 7.0 7.2 7.1 7.0 6.9 6.7 6.5 6.8 6.8 6.9 7.0 7.0 6.9 6.1 6.3 6.4 6.6 7.2 7.5 7.6 7.5 7.7 8.1 7.9 7.8 8.0 7.8 8.0 8.2 8.0 8.2 8.5 8.8 8.7 8.5 8.1
5.4 5.4 5.5 5.6 5.8 6.1 6.3 6.6 6.8 7.0 7.1 7.1 7.0 6.9 6.2 6.8 6.8 6.9 6.9 6.9 6.8 6.8 6.7 6.5 6.9 6.6 7.0 7.4 7.6 7.8 8.5 9.6 8.3 8.0 8.1 8.3 9.5 8.1 8.1 8.3 8.5 8.8 8.9 8.5 8.4
5.4 5.6 5.6 5.7 5.8 6.0 6.3 6.6 6.8 6.9 7.0 7.1 6.8 6.5 6.3 6.7 6.7 6.7 6.6 6.2 6.7 6.8 7.0 7.2 7.0 6.9 7.4 7.6 8.7 8.8 9.7 9.4 8.9 8.0 8.0 8.3 8.9 8.6 8.2 8.3 8.3 8.5 8.6 8.4 8.2
5.4 5.6 5.7 5.8 5.9 6.1 6.3 6.5 6.8 6.8 6.9 6.8 6.6 6.8 6.7 6.3 6.4 6.7 6.4 6.2 6.0 6.0 6.5 6.7 6.9 7.5 8.0 8.5 9.6 9.4 9.3 9.6 8.8 8.4 8.2 8.6 8.6 8.2 8.1 8.5 8.2 8.0 8.0 7.9 7.9
5.5 5.6 5.7 5.7 6.0 6.1 6.3 6.4 6.6 6.7 6.9 6.2 6.4 6.4 6.5 6.6 6.6 6.6 6.5 6.3 5.9 6.2 7.1 7.1 7.7 8.6 9.4 8.4 8.2 8.3 8.5 8.8 8.5 8.0 8.3 8.3 8.3 8.1 8.0 8.3 7.8 7.6 7.8 7.7 7.7
5.6 5.7 5.8 5.8 6.0 6.1 6.2 6.3 6.5 6.7 6.6 6.8 6.8 6.8 6.6 6.3 6.2 6.0 6.6 6.1 6.2 7.0 7.3 7.7 8.4 8.3 8.0 7.9 7.9 8.1 8.5 9.4 8.8 8.1 8.3 9.4 9.3 8.4 8.2 8.0 7.8 7.4 7.4 7.6 7.3
5.7 5.7 5.9 5.9 6.0 6.1 6.2 6.4 6.5 6.7 6.5 6.7 6.5 6.4 6.6 6.6 6.7 6.4 6.3 6.4 6.8 7.3 7.7 8.4 8.6 7.8 7.8 7.9 8.0 8.2 8.6 9.2 8.8 8.6 8.6 8.8 9.4 8.8 8.2 8.1 7.8 7.5 7.2 7.7 7.3
5.8 5.8 6.0 6.1 6.1 6.2 6.3 6.4 6.5 6.8 6.9 6.7 6.6 6.5 6.5 6.6 6.9 6.8 6.5 6.9 7.2 7.8 7.9 8.3 7.9 7.7 7.9 8.0 8.1 9.6 8.2 8.2 8.4 8.7 9.6 9.0 9.8 9.2 9.1 9.1 8.5 7.8 7.4 6.9 7.7
5.9 5.9 6.1 6.2 6.2 6.3 6.4 6.5 6.7 6.8 8.6 7.0 6.9 6.7 6.8 7.0 7.3 6.8 6.8 7.0 7.6 7.7 7.9 8.7 8.0 7.9 8.0 7.9 7.8 8.1 8.1 8.3 8.4 8.7 9.3 9.7 9.7 9.3 9.1 9.5 9.3 8.4 7.5 7.1 6.9
6.1 6.0 6.2 6.3 6.4 6.6 6.6 6.7 6.9 6.9 8.9 7.3 7.2 7.0 7.1 7.2 7.4 7.2 7.0 7.0 7.5 7.8 8.0 8.2 7.8 7.7 8.0 7.6 7.7 7.8 8.1 8.3 8.9 9.4 9.8 9.7 9.7 9.7 9.5 9.5 9.1 8.2 7.7 7.3 7.1
6.0 6.1 6.2 6.3 6.4 6.6 6.8 6.9 7.0 8.0 8.1 7.8 7.6 7.7 7.7 7.9 7.8 7.6 7.5 7.5 7.9 8.1 8.6 8.5 8.3 8.0 7.7 7.9 7.8 7.9 8.9 9.7 9.8 9.8 9.9 9.3 9.3 9.7 9.1 8.1 8.6 8.3 7.9 7.6 7.5
6.0 6.1 6.2 6.3 6.5 6.6 6.7 6.4 7.5 9.1 8.4 7.9 8.0 8.1 8.4 8.4 8.3 8.0 8.2 8.3 8.1 8.2 8.8 9.6 9.6 8.6 7.7 8.2 8.6 8.4 8.3 8.9 9.5 9.8 9.9 9.6 9.7 9.6 8.1 8.0 7.6 7.7 7.8 7.7 7.5
6.1 6.1 6.3 6.4 6.4 6.5 6.5 6.9 8.2 9.2 7.8 7.9 8.0 8.3 8.6 8.3 8.4 8.2 8.4 9.3 9.0 8.1 8.5 9.5 9.6 8.3 7.8 7.8 7.9 9.3 8.1 9.0 8.5 8.9 9.7 9.6 9.6 9.6 8.4 8.1 7.8 7.8 7.7 7.6 7.0
6.1 6.2 5.9 6.4 6.5 6.5 6.1 7.2 7.2 7.2 7.3 7.6 8.4 8.5 9.4 8.7 8.3 8.5 9.1 8.3 8.0 7.8 8.0 8.7 8.5 8.9 7.5 7.6 7.8 7.9 8.1 8.3 9.5 9.6 9.4 9.7 9.7 9.6 8.9 8.7 7.7 7.6 7.6 7.2 6.6
6.1 6.2 6.1 6.5 6.5 6.3 6.9 7.9 7.1 6.8 7.1 7.6 8.2 8.6 8.4 9.5 8.4 9.5 9.4 8.3 7.6 7.6 7.8 8.3 7.9 9.2 8.0 7.9 8.1 8.3 8.4 8.3 8.8 8.7 9.8 9.9 9.8 9.2 8.9 8.9 7.7 7.5 7.4 6.6 6.5
6.1 5.9 6.1 6.4 6.0 6.7 7.3 7.0 6.6 6.9 6.7 7.1 7.2 7.9 8.1 8.2 8.1 8.4 8.6 8.2 7.1 7.6 7.7 7.7 7.8 8.4 9.1 8.7 7.4 7.8 7.5 7.9 9.3 9.1 9.6 9.1 9.0 9.6 8.4 8.0 7.6 7.1 6.9 6.6 6.2
6.0 5.8 6.1 6.4 6.6 7.2 6.8 6.6 6.5 6.7 6.8 7.0 7.2 7.3 7.5 7.8 7.8 8.1 8.1 7.1 7.0 7.3 7.2 7.4 7.5 8.1 8.4 8.5 8.7 7.0 7.4 7.5 7.7 7.7 7.7 8.2 8.9 9.5 9.3 8.7 7.5 7.0 6.8 6.3 5.9
5.9 6.0 5.9 6.0 6.3 6.7 6.8 6.7 6.4 6.2 6.6 6.6 7.0 6.9 7.3 7.5 7.7 7.8 7.9 7.1 6.8 7.1 6.7 6.8 7.2 7.5 8.2 8.8 8.7 8.2 7.7 7.6 7.6 7.7 8.2 8.7 8.5 8.7 8.5 7.7 7.0 7.0 6.5 5.8 5.7
5.7 5.6 5.9 6.7 6.3 6.5 6.6 6.7 6.8 6.5 6.4 6.5 6.8 7.1 7.4 7.6 7.7 7.5 7.7 7.6 6.7 6.5 6.5 6.9 7.1 7.4 7.6 7.7 7.8 7.9 7.8 7.8 7.8 7.8 7.8 8.0 8.0 7.9 7.9 6.8 6.7 6.3 6.1 6.0 5.8
5.2 4.8 5.6 5.8 6.2 6.0 6.3 6.6 6.9 7.0 6.6 6.7 6.8 7.1 7.2 7.4 7.7 7.9 7.7 7.6 7.6 7.0 6.6 7.0 7.1 7.0 7.1 7.4 7.4 7.5 7.5 7.5 7.4 7.6 7.6 7.7 7.8 8.8 6.7 6.5 6.5 6.5 6.2 5.8 5.7
5.8 5.8 5.9 5.6 5.9 6.3 7.0 6.6 6.6 6.8 6.3 6.4 6.6 6.7 7.0 6.9 6.7 6.9 7.0 7.2 7.0 7.0 6.9 6.9 7.0 7.0 7.2 7.5 7.5 7.4 7.8 7.5 7.6 7.6 7.7 7.9 8.7 7.6 7.0 6.5 6.4 6.2 5.8 5.6 5.6
Wind_Speed
23 23 23 23 22 20 18 15 13 11 10 9 7 8 9 9 10 8 10 2 3 19 8 10 9 9 9 12 5 8 7 3 5 7 10 8 7 8 1 3 3 6 10 13 22
24 24 24 24 23 22 19 17 14 11 9 8 7 8 8 6 10 14 6 10 15 17 10 10 9 8 12 7 4 11 9 3 4 7 7 8 5 3 4 6 12 8 9 19 21
25 25 26 26 25 23 22 18 15 12 10 9 8 8 7 8 9 5 8 14 14 20 12 10 6 9 11 6 5 6 9 10 4 2 8 11 10 8 5 6 11 7 15 18 18
26 26 27 27 26 24 22 19 16 11 10 9 9 8 6 9 1 7 9 13 15 17 11 9 10 12 9 7 3 9 9 5 9 9 10 12 11 9 10 12 7 5 9 18 18
26 27 27 27 28 26 24 20 14 8 7 8 9 9 6 8 4 8 11 12 16 15 13 11 9 11 11 7 6 11 10 7 10 12 12 12 12 11 10 6 2 4 7 17 17
27 28 28 28 28 27 25 20 11 3 7 9 10 9 7 8 6 11 13 16 14 14 13 10 8 6 11 9 10 13 11 12 12 4 4 6 6 5 1 5 5 2 5 16 16
29 29 29 28 27 27 24 20 6 4 8 10 12 6 10 7 5 11 14 14 10 13 9 9 6 10 5 11 5 10 12 8 3 1 3 6 6 7 2 2 4 3 6 5 18
30 30 29 29 27 26 23 17 5 4 7 9 10 10 4 2 8 12 13 9 7 7 7 4 8 13 10 9 12 13 13 10 11 6 4 12 11 9 3 3 3 0 3 4 10
30 31 31 30 27 25 22 15 4 5 5 9 7 9 8 3 11 11 9 8 8 7 4 4 10 13 8 12 13 7 5 4 4 2 5 4 9 10 6 3 3 5 2 5 8
30 31 32 32 29 25 21 8 1 4 8 9 9 8 9 12 10 12 7 4 7 6 7 9 8 11 11 11 8 10 9 3 3 4 6 6 7 7 3 1 6 7 2 5 6
32 31 32 33 32 24 13 4 5 6 11 9 7 4 11 10 9 10 12 10 9 9 12 10 10 12 3 9 8 6 7 6 3 3 10 4 3 5 3 6 9 8 6 6 6
32 33 33 35 33 29 8 4 6 6 6 4 4 4 2 8 9 10 13 12 9 12 6 7 12 9 3 6 8 9 8 8 3 1 7 4 3 3 3 5 7 11 10 11 11
31 33 34 36 35 12 4 6 6 5 7 6 9 11 13 11 10 14 15 12 10 9 9 13 12 3 6 8 9 12 9 7 8 3 12 7 13 9 11 7 9 12 11 12 11
32 33 33 40 8 4 1 4 6 2 6 10 12 7 8 10 6 13 16 6 5 7 4 8 8 5 8 7 6 13 5 6 9 10 9 3 1 12 9 9 8 9 11 11 11
34 33 32 18 11 3 6 7 6 4 6 16 12 12 13 12 14 11 12 7 12 7 9 7 6 6 9 5 8 7 6 6 9 11 12 12 7 11 10 7 7 11 8 9 8
35 33 31 4 7 5 7 8 5 7 3 9 9 13 15 13 11 12 10 10 6 8 10 12 3 6 8 2 5 7 10 14 13 13 12 10 4 5 8 7 8 8 7 5 6
38 35 18 10 5 8 7 6 7 9 7 10 15 15 18 11 13 12 15 14 12 10 14 14 12 6 7 9 9 11 16 10 8 10 3 8 5 7 9 7 6 8 3 4 2
42 38 6 8 10 7 7 8 9 4 7 3 4 12 14 11 11 11 12 13 10 9 11 7 10 11 6 7 9 6 8 7 11 10 12 6 6 5 8 7 7 4 4 2 3
42 6 6 7 3 5 7 10 10 6 3 7 10 12 15 9 7 11 14 12 5 5 10 9 8 7 2 2 5 4 8 9 10 17 12 11 4 9 10 6 6 1 3 4 6
8 9 9 3 4 7 7 15 2 5 3 7 12 13 15 14 13 11 11 5 5 7 7 3 10 12 10 5 10 10 11 10 9 6 10 6 4 8 9 6 3 4 7 7 9
5 5 7 5 5 7 10 8 4 4 5 8 13 6 14 6 9 12 6 8 5 6 8 11 6 4 5 12 13 8 11 6 9 8 11 10 4 8 3 3 3 9 12 14 11
6 7 5 5 8 8 11 5 4 6 8 7 8 9 9 6 8 9 6 3 7 7 8 4 6 10 13 8 1 10 15 16 10 10 9 11 11 9 7 5 8 10 9 10 10
5 8 5 6 8 9 4 6 8 6 7 7 8 7 8 6 7 8 5 10 3 8 6 5 7 10 15 17 12 5 9 8 9 8 14 12 10 4 1 6 9 12 10 7 11
5 4 6 7 10 11 7 12 10 5 3 5 6 2 8 12 7 4 9 7 2 3 8 4 11 12 13 16 12 7 9 10 12 11 13 13 17 15 15 15 12 12 11 10 11
5 3 6 3 8 9 4 2 12 8 10 7 8 12 10 10 12 11 10 11 9 7 6 6 11 12 14 14 14 17 16 16 17 18 18 19 21 19 13 10 9 10 11 11 13
5 4 1 9 4 7 7 11 12 10 4 10 11 9 6 10 9 7 10 9 9 13 10 10 10 11 15 16 17 20 20 20 21 21 21 21 21 8 4 5 8 11 12 12 15
6 6 5 1 9 10 10 11 10 6 6 9 5 2 10 4 3 8 9 8 7 7 8 9 9 10 16 16 16 16 17 17 20 18 16 16 10 12 10 12 12 13 14 13 14
Wind_Direction
343 340 338 336 333 332 333 327 318 307 295 288 283 285 290 294 290 222 239 78 167 165 208 209 224 226 232 257 237 240 265 100 9 342 20 8 3 50 137 354 107 10 60 118 140
341 339 337 336 334 336 333 327 316 301 285 273 266 271 272 280 250 240 154 116 149 175 209 196 205 210 233 259 235 265 286 71 64 324 311 325 346 346 317 323 56 125 104 121 151
341 339 338 337 335 333 329 322 311 295 274 256 251 255 255 251 255 171 130 143 169 189 223 222 256 234 262 264 236 289 299 13 281 340 320 315 306 343 320 295 7 41 133 143 162
341 340 338 336 334 333 330 325 312 291 264 242 235 231 229 225 305 78 138 151 179 202 227 227 236 233 255 235 235 274 282 297 304 321 298 284 293 295 300 327 314 58 142 154 170
341 340 338 337 334 335 334 331 317 285 235 217 210 207 209 212 53 102 144 155 177 212 205 216 228 252 269 305 306 254 282 318 292 293 290 283 270 278 294 290 277 15 157 160 178
341 339 338 337 335 336 336 335 326 254 194 194 190 190 248 240 95 130 152 163 181 203 204 224 253 285 293 286 282 321 310 291 274 351 309 290 266 215 111 355 283 283 166 176 178
339 339 337 336 337 337 337 338 353 176 179 188 189 224 253 71 127 145 156 179 182 204 213 231 278 254 308 258 294 285 276 252 137 72 325 312 208 102 308 234 224 221 144 171 162
339 336 335 334 336 335 333 333 344 189 189 192 190 242 52 127 148 162 175 183 193 237 284 296 241 264 278 302 268 247 247 236 123 300 95 292 127 139 7 293 281 360 101 159 179
338 334 331 331 334 333 327 320 278 200 223 187 214 231 124 145 178 183 189 186 181 208 227 269 236 245 250 244 237 194 269 17 106 137 312 278 344 50 333 274 310 278 45 118 154
334 331 328 329 332 330 319 287 210 205 217 216 264 257 165 200 176 178 200 228 193 182 187 221 225 237 213 241 346 3 334 29 312 57 309 261 357 61 354 244 64 35 357 140 163
332 330 328 328 327 325 316 196 207 194 219 306 136 340 136 116 154 195 191 207 218 213 229 210 237 227 41 12 340 319 293 288 110 59 281 60 346 74 67 68 81 65 68 71 118
333 331 329 326 323 316 280 316 36 340 256 200 215 256 184 182 180 172 181 206 205 227 201 199 236 55 339 303 286 276 271 258 180 147 270 289 221 113 118 87 69 91 64 93 111
334 331 330 323 319 295 353 27 333 305 256 144 192 181 178 202 193 174 195 226 221 230 215 273 63 49 270 280 256 250 272 331 319 317 243 261 233 178 146 165 129 108 93 75 78
329 326 330 324 303 356 196 343 307 290 258 141 177 171 179 228 203 159 201 234 216 258 214 242 83 281 274 262 293 276 62 290 278 276 302 186 85 185 143 161 178 126 114 98 101
326 327 326 324 312 268 7 321 319 234 251 150 144 131 171 214 125 193 196 208 266 184 249 106 225 246 273 22 299 34 326 299 293 276 273 256 242 121 185 173 162 110 89 95 91
324 324 329 219 224 327 307 308 245 230 218 155 150 184 185 211 188 144 194 234 309 268 232 280 114 266 312 124 275 329 272 245 242 248 247 229 304 284 60 71 123 114 106 99 100
322 318 315 305 332 337 309 247 230 251 139 150 180 177 198 182 174 184 197 198 228 213 223 216 217 160 260 237 203 245 261 276 230 233 265 114 279 299 89 80 25 86 118 100 90
322 313 223 261 294 295 274 240 252 305 175 88 190 201 212 168 192 201 219 228 214 281 286 248 187 188 150 275 338 315 325 304 303 298 313 336 252 114 67 104 123 152 185 234 56
316 268 243 203 266 279 262 230 234 255 69 209 193 215 212 178 276 213 223 237 121 222 272 307 235 129 198 229 261 170 255 0 306 265 247 256 186 159 132 167 183 297 15 20 19
313 284 247 166 234 255 246 253 332 341 297 268 227 214 219 199 201 210 193 201 192 266 270 0 282 198 148 238 222 269 333 280 234 267 278 297 315 248 162 186 160 297 341 335 332
265 256 108 207 229 238 240 246 176 178 251 250 246 246 255 214 219 229 226 126 238 172 277 288 240 239 149 233 245 187 236 204 277 310 298 293 301 70 3 282 351 325 320 347 328
286 244 112 212 226 229 249 197 14 200 216 242 287 277 242 218 230 254 238 244 107 296 254 58 285 271 262 129 262 275 280 281 282 290 296 308 284 15 34 325 300 292 328 323 327
282 289 148 237 242 214 153 216 231 204 221 211 235 248 240 255 243 257 231 89 157 252 12 338 245 263 238 237 193 245 265 246 274 281 265 276 279 333 98 243 331 329 303 323 315
276 250 191 215 267 285 160 218 195 243 220 269 278 244 228 240 212 248 240 136 201 302 50 309 269 266 286 321 320 276 252 252 264 272 283 277 296 301 305 316 328 317 334 317 303
240 265 13 188 205 236 270 282 222 175 243 222 211 239 223 227 220 222 231 150 193 132 235 251 270 279 279 288 284 287 280 276 273 276 275 290 296 298 324 4 344 319 287 295 311
300 302 242 287 243 246 163 227 245 195 204 204 253 203 235 253 245 247 230 229 246 168 228 244 267 282 278 278 282 277 274 272 272 276 274 278 279 302 7 294 284 298 308 321 306
14 258 273 197 224 237 232 231 229 263 171 298 231 215 231 327 26 338 319 311 287 294 266 251 274 281 278 294 291 275 265 266 266 258 270 277 298 342 337 343 328 321 318 306 317